iso_date,epoch_date,Year,Hour,Min,DOY,POS_DOY,Lat,Lon,BP,Ts,Ta,has_bp,has_ts,has_ta,BuoyID,Buoy_Type,Buoy_Owner,Logistics,Hemisphere
2018-08-10T19:00:28Z,1533927629,2018,19,0,222.792,222.792,64.805,-52.176,1005.2,15.41,-999.0,yes,yes,no,300234063732900,BD2GI,AOML,MANEVAI,North
2018-08-10T19:59:31Z,1533931171,2018,20,0,222.833,222.833,64.806,-52.176,1005.5,18.52,-999.0,yes,yes,no,300234063732900,BD2GI,AOML,MANEVAI,North
2018-08-10T21:00:00Z,1533934800,2018,21,0,222.875,222.875,64.806,-52.176,1005.9,17.0,-999.0,yes,yes,no,300234063732900,BD2GI,AOML,MANEVAI,North
2018-08-10T22:00:28Z,1533938429,2018,22,0,222.917,222.917,64.806,-52.176,1006.3,15.68,-999.0,yes,yes,no,300234063732900,BD2GI,AOML,MANEVAI,North
2018-08-10T22:59:31Z,1533941971,2018,23,0,222.958,222.958,64.805,-52.176,1006.8,12.49,-999.0,yes,yes,no,300234063732900,BD2GI,AOML,MANEVAI,North
2018-08-11T00:00:00Z,1533945600,2018,0,0,223.0,223.0,64.805,-52.176,1007.1,11.67,-999.0,yes,yes,no,300234063732900,BD2GI,AOML,MANEVAI,North
2018-08-11T01:00:28Z,1533949229,2018,1,0,223.042,223.042,64.805,-52.176,1007.5,10.28,-999.0,yes,yes,no,300234063732900,BD2GI,AOML,MANEVAI,North
2018-08-11T01:59:31Z,1533952771,2018,2,0,223.083,223.083,64.806,-52.176,1007.5,9.2,-999.0,yes,yes,no,300234063732900,BD2GI,AOML,MANEVAI,North
2018-08-11T03:00:00Z,1533956400,2018,3,0,223.125,223.125,64.805,-52.176,1007.6,8.59,-999.0,yes,yes,no,300234063732900,BD2GI,AOML,MANEVAI,North
2018-08-11T04:00:28Z,1533960029,2018,4,0,223.167,223.167,64.805,-52.176,1007.8,8.18,-999.0,yes,yes,no,300234063732900,BD2GI,AOML,MANEVAI,North
2018-08-11T04:59:31Z,1533963571,2018,5,0,223.208,223.208,64.805,-52.176,1008.3,7.83,-999.0,yes,yes,no,300234063732900,BD2GI,AOML,MANEVAI,North
2018-08-11T06:00:00Z,1533967200,2018,6,0,223.25,223.25,64.805,-52.176,1008.3,7.5,-999.0,yes,yes,no,300234063732900,BD2GI,AOML,MANEVAI,North
2018-08-11T07:00:28Z,1533970829,2018,7,0,223.292,223.292,64.805,-52.176,1008.5,7.27,-999.0,yes,yes,no,300234063732900,BD2GI,AOML,MANEVAI,North
2018-08-11T07:59:31Z,1533974371,2018,8,0,223.333,223.333,64.805,-52.176,1008.8,7.17,-999.0,yes,yes,no,300234063732900,BD2GI,AOML,MANEVAI,North
2018-08-11T09:00:00Z,1533978000,2018,9,0,223.375,223.375,64.806,-52.176,1009.1,7.5,-999.0,yes,yes,no,300234063732900,BD2GI,AOML,MANEVAI,North
2018-08-11T10:00:28Z,1533981629,2018,10,0,223.417,223.417,64.806,-52.176,1009.3,8.07,-999.0,yes,yes,no,300234063732900,BD2GI,AOML,MANEVAI,North
2018-08-11T10:59:31Z,1533985171,2018,11,0,223.458,223.458,64.805,-52.176,1009.5,8.74,-999.0,yes,yes,no,300234063732900,BD2GI,AOML,MANEVAI,North
2018-08-11T12:00:00Z,1533988800,2018,12,0,223.5,223.5,64.805,-52.176,1009.4,8.63,-999.0,yes,yes,no,300234063732900,BD2GI,AOML,MANEVAI,North
2018-08-11T13:00:28Z,1533992429,2018,13,0,223.542,223.542,64.806,-52.176,1009.8,8.62,-999.0,yes,yes,no,300234063732900,BD2GI,AOML,MANEVAI,North
2018-08-11T13:59:31Z,1533995971,2018,14,0,223.583,223.583,64.806,-52.176,1009.7,9.48,-999.0,yes,yes,no,300234063732900,BD2GI,AOML,MANEVAI,North
2018-08-11T15:00:00Z,1533999600,2018,15,0,223.625,223.625,64.805,-52.176,1009.6,10.75,-999.0,yes,yes,no,300234063732900,BD2GI,AOML,MANEVAI,North
2018-08-11T16:00:28Z,1534003229,2018,16,0,223.667,223.667,64.805,-52.176,1009.4,11.37,-999.0,yes,yes,no,300234063732900,BD2GI,AOML,MANEVAI,North
2018-08-11T16:59:31Z,1534006771,2018,17,0,223.708,223.708,64.805,-52.176,1009.4,12.96,-999.0,yes,yes,no,300234063732900,BD2GI,AOML,MANEVAI,North
2018-08-11T18:00:00Z,1534010400,2018,18,0,223.75,223.75,64.805,-52.176,1009.3,15.12,-999.0,yes,yes,no,300234063732900,BD2GI,AOML,MANEVAI,North
2018-08-11T19:00:28Z,1534014029,2018,19,0,223.792,223.792,64.805,-52.176,1009.5,18.52,-999.0,yes,yes,no,300234063732900,BD2GI,AOML,MANEVAI,North
2018-08-11T19:59:31Z,1534017571,2018,20,0,223.833,223.833,64.805,-52.176,1009.3,22.06,-999.0,yes,yes,no,300234063732900,BD2GI,AOML,MANEVAI,North
2018-08-11T21:00:00Z,1534021200,2018,21,0,223.875,223.875,64.805,-52.176,1009.0,26.81,-999.0,yes,yes,no,300234063732900,BD2GI,AOML,MANEVAI,North
2018-08-11T22:00:28Z,1534024829,2018,22,0,223.917,223.917,64.806,-52.176,1009.1,19.64,-999.0,yes,yes,no,300234063732900,BD2GI,AOML,MANEVAI,North
2018-08-11T22:59:31Z,1534028371,2018,23,0,223.958,223.958,64.805,-52.176,1009.2,15.27,-999.0,yes,yes,no,300234063732900,BD2GI,AOML,MANEVAI,North
2018-08-12T00:00:00Z,1534032000,2018,0,0,224.0,224.0,64.805,-52.176,1009.5,13.37,-999.0,yes,yes,no,300234063732900,BD2GI,AOML,MANEVAI,North
2018-08-12T01:00:28Z,1534035629,2018,1,0,224.042,224.042,64.805,-52.176,1009.5,12.25,-999.0,yes,yes,no,300234063732900,BD2GI,AOML,MANEVAI,North
2018-08-12T01:59:31Z,1534039171,2018,2,0,224.083,224.083,64.806,-52.176,1009.2,11.37,-999.0,yes,yes,no,300234063732900,BD2GI,AOML,MANEVAI,North
2018-08-12T03:00:00Z,1534042800,2018,3,0,224.125,224.125,64.805,-52.176,1008.8,10.97,-999.0,yes,yes,no,300234063732900,BD2GI,AOML,MANEVAI,North
2018-08-12T04:00:28Z,1534046429,2018,4,0,224.167,224.167,64.805,-52.176,1008.8,10.37,-999.0,yes,yes,no,300234063732900,BD2GI,AOML,MANEVAI,North
2018-08-12T04:59:31Z,1534049971,2018,5,0,224.208,224.208,64.805,-52.176,1008.4,10.0,-999.0,yes,yes,no,300234063732900,BD2GI,AOML,MANEVAI,North
2018-08-12T06:00:00Z,1534053600,2018,6,0,224.25,224.25,64.805,-52.176,1008.4,9.68,-999.0,yes,yes,no,300234063732900,BD2GI,AOML,MANEVAI,North
2018-08-12T07:00:28Z,1534057229,2018,7,0,224.292,224.292,64.805,-52.176,1008.6,9.17,-999.0,yes,yes,no,300234063732900,BD2GI,AOML,MANEVAI,North
2018-08-12T07:59:31Z,1534060771,2018,8,0,224.333,224.333,64.805,-52.176,1008.7,8.75,-999.0,yes,yes,no,300234063732900,BD2GI,AOML,MANEVAI,North
2018-08-12T09:00:00Z,1534064400,2018,9,0,224.375,224.375,64.806,-52.176,1008.7,8.57,-999.0,yes,yes,no,300234063732900,BD2GI,AOML,MANEVAI,North
2018-08-12T10:00:28Z,1534068029,2018,10,0,224.417,224.417,64.805,-52.176,1008.5,8.66,-999.0,yes,yes,no,300234063732900,BD2GI,AOML,MANEVAI,North
2018-08-12T10:59:31Z,1534071571,2018,11,0,224.458,224.458,64.805,-52.176,1008.4,9.01,-999.0,yes,yes,no,300234063732900,BD2GI,AOML,MANEVAI,North
2018-08-12T12:00:00Z,1534075200,2018,12,0,224.5,224.5,64.805,-52.176,1008.2,9.28,-999.0,yes,yes,no,300234063732900,BD2GI,AOML,MANEVAI,North
2018-08-12T13:00:28Z,1534078829,2018,13,0,224.542,224.542,64.805,-52.176,1007.7,9.52,-999.0,yes,yes,no,300234063732900,BD2GI,AOML,MANEVAI,North
2018-08-12T13:59:31Z,1534082371,2018,14,0,224.583,224.583,64.806,-52.176,1007.1,10.48,-999.0,yes,yes,no,300234063732900,BD2GI,AOML,MANEVAI,North
2018-08-12T15:00:00Z,1534086000,2018,15,0,224.625,224.625,64.805,-52.176,1007.4,10.24,-999.0,yes,yes,no,300234063732900,BD2GI,AOML,MANEVAI,North
2018-08-12T16:00:28Z,1534089629,2018,16,0,224.667,224.667,64.805,-52.176,1007.3,11.19,-999.0,yes,yes,no,300234063732900,BD2GI,AOML,MANEVAI,North
2018-08-12T16:59:31Z,1534093171,2018,17,0,224.708,224.708,64.806,-52.176,1007.0,12.79,-999.0,yes,yes,no,300234063732900,BD2GI,AOML,MANEVAI,North
2018-08-12T18:00:00Z,1534096800,2018,18,0,224.75,224.75,64.805,-52.176,1006.9,12.72,-999.0,yes,yes,no,300234063732900,BD2GI,AOML,MANEVAI,North
2018-08-12T19:00:28Z,1534100429,2018,19,0,224.792,224.792,64.805,-52.176,1006.7,12.04,-999.0,yes,yes,no,300234063732900,BD2GI,AOML,MANEVAI,North
2018-08-12T19:59:31Z,1534103971,2018,20,0,224.833,224.833,64.805,-52.176,1006.3,10.76,-999.0,yes,yes,no,300234063732900,BD2GI,AOML,MANEVAI,North
2018-08-12T21:00:00Z,1534107600,2018,21,0,224.875,224.875,64.806,-52.176,1005.9,9.92,-999.0,yes,yes,no,300234063732900,BD2GI,AOML,MANEVAI,North
2018-08-12T22:00:28Z,1534111229,2018,22,0,224.917,224.917,64.805,-52.176,1005.2,9.11,-999.0,yes,yes,no,300234063732900,BD2GI,AOML,MANEVAI,North
2018-08-12T22:59:31Z,1534114771,2018,23,0,224.958,224.958,64.805,-52.176,1004.9,8.77,-999.0,yes,yes,no,300234063732900,BD2GI,AOML,MANEVAI,North
2018-08-13T00:00:00Z,1534118400,2018,0,0,225.0,225.0,64.805,-52.176,1004.6,8.21,-999.0,yes,yes,no,300234063732900,BD2GI,AOML,MANEVAI,North
2018-08-13T01:00:28Z,1534122029,2018,1,0,225.042,225.042,64.805,-52.176,1004.1,7.53,-999.0,yes,yes,no,300234063732900,BD2GI,AOML,MANEVAI,North
2018-08-13T01:59:31Z,1534125571,2018,2,0,225.083,225.083,64.805,-52.176,1003.6,7.06,-999.0,yes,yes,no,300234063732900,BD2GI,AOML,MANEVAI,North
2018-08-13T03:00:00Z,1534129200,2018,3,0,225.125,225.125,64.805,-52.176,1003.1,6.55,-999.0,yes,yes,no,300234063732900,BD2GI,AOML,MANEVAI,North
2018-08-13T04:00:28Z,1534132829,2018,4,0,225.167,225.167,64.805,-52.176,1002.6,6.46,-999.0,yes,yes,no,300234063732900,BD2GI,AOML,MANEVAI,North
2018-08-13T04:59:31Z,1534136371,2018,5,0,225.208,225.208,64.805,-52.176,1002.3,6.05,-999.0,yes,yes,no,300234063732900,BD2GI,AOML,MANEVAI,North
2018-08-13T06:00:00Z,1534140000,2018,6,0,225.25,225.25,64.805,-52.176,1001.9,5.87,-999.0,yes,yes,no,300234063732900,BD2GI,AOML,MANEVAI,North
2018-08-13T07:00:28Z,1534143629,2018,7,0,225.292,225.292,64.805,-52.176,1001.5,6.14,-999.0,yes,yes,no,300234063732900,BD2GI,AOML,MANEVAI,North
2018-08-13T07:59:31Z,1534147171,2018,8,0,225.333,225.333,64.805,-52.176,1000.7,6.29,-999.0,yes,yes,no,300234063732900,BD2GI,AOML,MANEVAI,North
2018-08-13T09:00:00Z,1534150800,2018,9,0,225.375,225.375,64.805,-52.176,1000.0,6.16,-999.0,yes,yes,no,300234063732900,BD2GI,AOML,MANEVAI,North
2018-08-13T10:00:28Z,1534154429,2018,10,0,225.417,225.417,64.805,-52.176,999.6,6.33,-999.0,yes,yes,no,300234063732900,BD2GI,AOML,MANEVAI,North
2018-08-13T10:59:31Z,1534157971,2018,11,0,225.458,225.458,64.805,-52.176,999.2,6.58,-999.0,yes,yes,no,300234063732900,BD2GI,AOML,MANEVAI,North
2018-08-13T12:00:00Z,1534161600,2018,12,0,225.5,225.5,64.805,-52.176,998.7,7.39,-999.0,yes,yes,no,300234063732900,BD2GI,AOML,MANEVAI,North
2018-08-13T13:00:28Z,1534165229,2018,13,0,225.542,225.542,64.805,-52.176,998.2,8.02,-999.0,yes,yes,no,300234063732900,BD2GI,AOML,MANEVAI,North
2018-08-13T13:59:31Z,1534168771,2018,14,0,225.583,225.583,64.806,-52.176,998.1,9.0,-999.0,yes,yes,no,300234063732900,BD2GI,AOML,MANEVAI,North
2018-08-13T15:00:00Z,1534172400,2018,15,0,225.625,225.625,64.805,-52.176,997.9,9.11,-999.0,yes,yes,no,300234063732900,BD2GI,AOML,MANEVAI,North
2018-08-13T16:00:28Z,1534176029,2018,16,0,225.667,225.667,64.805,-52.176,997.6,10.21,-999.0,yes,yes,no,300234063732900,BD2GI,AOML,MANEVAI,North
2018-08-13T16:59:31Z,1534179571,2018,17,0,225.708,225.708,64.806,-52.176,997.4,11.11,-999.0,yes,yes,no,300234063732900,BD2GI,AOML,MANEVAI,North
2018-08-13T18:00:00Z,1534183200,2018,18,0,225.75,225.75,64.805,-52.176,997.5,11.36,-999.0,yes,yes,no,300234063732900,BD2GI,AOML,MANEVAI,North
2018-08-13T19:00:28Z,1534186829,2018,19,0,225.792,225.792,64.805,-52.176,997.4,11.24,-999.0,yes,yes,no,300234063732900,BD2GI,AOML,MANEVAI,North
2018-08-13T19:59:31Z,1534190371,2018,20,0,225.833,225.833,64.805,-52.176,997.5,12.15,-999.0,yes,yes,no,300234063732900,BD2GI,AOML,MANEVAI,North
2018-08-13T21:00:00Z,1534194000,2018,21,0,225.875,225.875,64.805,-52.176,997.5,14.37,-999.0,yes,yes,no,300234063732900,BD2GI,AOML,MANEVAI,North
2018-08-13T22:00:28Z,1534197629,2018,22,0,225.917,225.917,64.805,-52.176,997.4,12.27,-999.0,yes,yes,no,300234063732900,BD2GI,AOML,MANEVAI,North
2018-08-13T22:59:31Z,1534201171,2018,23,0,225.958,225.958,64.805,-52.176,997.6,11.22,-999.0,yes,yes,no,300234063732900,BD2GI,AOML,MANEVAI,North
2018-08-14T00:00:00Z,1534204800,2018,0,0,226.0,226.0,64.805,-52.176,997.7,9.7,-999.0,yes,yes,no,300234063732900,BD2GI,AOML,MANEVAI,North
2018-08-14T01:00:28Z,1534208429,2018,1,0,226.042,226.042,64.805,-52.176,997.8,8.94,-999.0,yes,yes,no,300234063732900,BD2GI,AOML,MANEVAI,North
2018-08-14T01:59:31Z,1534211971,2018,2,0,226.083,226.083,64.806,-52.176,997.9,8.63,-999.0,yes,yes,no,300234063732900,BD2GI,AOML,MANEVAI,North
2018-08-14T03:00:00Z,1534215600,2018,3,0,226.125,226.125,64.805,-52.176,997.6,8.15,-999.0,yes,yes,no,300234063732900,BD2GI,AOML,MANEVAI,North
2018-08-14T04:00:28Z,1534219229,2018,4,0,226.167,226.167,64.805,-52.176,997.8,7.5,-999.0,yes,yes,no,300234063732900,BD2GI,AOML,MANEVAI,North
2018-08-14T04:59:31Z,1534222771,2018,5,0,226.208,226.208,64.805,-52.176,997.9,7.34,-999.0,yes,yes,no,300234063732900,BD2GI,AOML,MANEVAI,North
2018-08-14T06:00:00Z,1534226400,2018,6,0,226.25,226.25,64.805,-52.176,998.3,7.24,-999.0,yes,yes,no,300234063732900,BD2GI,AOML,MANEVAI,North
2018-08-14T07:00:28Z,1534230029,2018,7,0,226.292,226.292,64.805,-52.176,998.2,7.22,-999.0,yes,yes,no,300234063732900,BD2GI,AOML,MANEVAI,North
2018-08-14T07:59:31Z,1534233571,2018,8,0,226.333,226.333,64.805,-52.176,998.2,7.01,-999.0,yes,yes,no,300234063732900,BD2GI,AOML,MANEVAI,North
2018-08-14T09:00:00Z,1534237200,2018,9,0,226.375,226.375,64.805,-52.176,998.4,6.9,-999.0,yes,yes,no,300234063732900,BD2GI,AOML,MANEVAI,North
2018-08-14T10:00:28Z,1534240829,2018,10,0,226.417,226.417,64.805,-52.176,998.4,6.75,-999.0,yes,yes,no,300234063732900,BD2GI,AOML,MANEVAI,North
2018-08-14T10:59:31Z,1534244371,2018,11,0,226.458,226.458,64.806,-52.176,998.6,6.82,-999.0,yes,yes,no,300234063732900,BD2GI,AOML,MANEVAI,North
2018-08-14T12:00:00Z,1534248000,2018,12,0,226.5,226.5,64.805,-52.176,998.9,6.66,-999.0,yes,yes,no,300234063732900,BD2GI,AOML,MANEVAI,North
2018-08-14T13:00:28Z,1534251629,2018,13,0,226.542,226.542,64.805,-52.176,999.4,7.08,-999.0,yes,yes,no,300234063732900,BD2GI,AOML,MANEVAI,North
2018-08-14T13:59:31Z,1534255171,2018,14,0,226.583,226.583,64.806,-52.176,999.4,7.62,-999.0,yes,yes,no,300234063732900,BD2GI,AOML,MANEVAI,North
2018-08-14T15:00:00Z,1534258800,2018,15,0,226.625,226.625,64.806,-52.176,999.7,8.5,-999.0,yes,yes,no,300234063732900,BD2GI,AOML,MANEVAI,North
2018-08-14T16:00:28Z,1534262429,2018,16,0,226.667,226.667,64.805,-52.176,999.8,9.6,-999.0,yes,yes,no,300234063732900,BD2GI,AOML,MANEVAI,North
2018-08-14T16:59:31Z,1534265971,2018,17,0,226.708,226.708,64.805,-52.176,999.9,10.48,-999.0,yes,yes,no,300234063732900,BD2GI,AOML,MANEVAI,North
2018-08-14T18:00:00Z,1534269600,2018,18,0,226.75,226.75,64.805,-52.176,1000.3,11.71,-999.0,yes,yes,no,300234063732900,BD2GI,AOML,MANEVAI,North
2018-08-14T19:00:28Z,1534273229,2018,19,0,226.792,226.792,64.805,-52.176,1000.9,15.17,-999.0,yes,yes,no,300234063732900,BD2GI,AOML,MANEVAI,North
2018-08-14T19:59:31Z,1534276771,2018,20,0,226.833,226.833,64.805,-52.176,1001.5,20.31,-999.0,yes,yes,no,300234063732900,BD2GI,AOML,MANEVAI,North
2018-08-14T21:00:00Z,1534280400,2018,21,0,226.875,226.875,64.805,-52.176,1002.0,21.42,-999.0,yes,yes,no,300234063732900,BD2GI,AOML,MANEVAI,North
2018-08-14T22:00:28Z,1534284029,2018,22,0,226.917,226.917,64.805,-52.176,1002.3,13.98,-999.0,yes,yes,no,300234063732900,BD2GI,AOML,MANEVAI,North
2018-08-14T22:59:31Z,1534287571,2018,23,0,226.958,226.958,64.805,-52.176,1002.9,11.74,-999.0,yes,yes,no,300234063732900,BD2GI,AOML,MANEVAI,North
2018-08-15T00:00:00Z,1534291200,2018,0,0,227.0,227.0,64.805,-52.176,1003.6,10.81,-999.0,yes,yes,no,300234063732900,BD2GI,AOML,MANEVAI,North
2018-08-15T01:00:28Z,1534294829,2018,1,0,227.042,227.042,64.806,-52.176,1004.2,10.36,-999.0,yes,yes,no,300234063732900,BD2GI,AOML,MANEVAI,North
2018-08-15T01:59:31Z,1534298371,2018,2,0,227.083,227.083,64.805,-52.176,1004.7,9.78,-999.0,yes,yes,no,300234063732900,BD2GI,AOML,MANEVAI,North
2018-08-15T03:00:00Z,1534302000,2018,3,0,227.125,227.125,64.806,-52.176,1005.0,9.45,-999.0,yes,yes,no,300234063732900,BD2GI,AOML,MANEVAI,North
2018-08-15T04:00:28Z,1534305629,2018,4,0,227.167,227.167,64.805,-52.176,1005.3,9.35,-999.0,yes,yes,no,300234063732900,BD2GI,AOML,MANEVAI,North
2018-08-15T04:59:31Z,1534309171,2018,5,0,227.208,227.208,64.805,-52.176,1005.4,9.15,-999.0,yes,yes,no,300234063732900,BD2GI,AOML,MANEVAI,North
2018-08-15T06:00:00Z,1534312800,2018,6,0,227.25,227.25,64.805,-52.176,1005.6,8.96,-999.0,yes,yes,no,300234063732900,BD2GI,AOML,MANEVAI,North
2018-08-15T07:00:28Z,1534316429,2018,7,0,227.292,227.292,64.805,-52.176,1005.8,8.73,-999.0,yes,yes,no,300234063732900,BD2GI,AOML,MANEVAI,North
2018-08-15T07:59:31Z,1534319971,2018,8,0,227.333,227.333,64.805,-52.176,1006.1,8.44,-999.0,yes,yes,no,300234063732900,BD2GI,AOML,MANEVAI,North
2018-08-15T09:00:00Z,1534323600,2018,9,0,227.375,227.375,64.805,-52.176,1006.5,8.34,-999.0,yes,yes,no,300234063732900,BD2GI,AOML,MANEVAI,North
2018-08-15T10:00:28Z,1534327229,2018,10,0,227.417,227.417,64.805,-52.176,1006.9,8.22,-999.0,yes,yes,no,300234063732900,BD2GI,AOML,MANEVAI,North
2018-08-15T10:59:31Z,1534330771,2018,11,0,227.458,227.458,64.805,-52.176,1007.2,8.19,-999.0,yes,yes,no,300234063732900,BD2GI,AOML,MANEVAI,North
2018-08-15T12:00:00Z,1534334400,2018,12,0,227.5,227.5,64.805,-52.176,1007.5,8.6,-999.0,yes,yes,no,300234063732900,BD2GI,AOML,MANEVAI,North
2018-08-15T13:00:28Z,1534338029,2018,13,0,227.542,227.542,64.805,-52.176,1007.7,9.0,-999.0,yes,yes,no,300234063732900,BD2GI,AOML,MANEVAI,North
2018-08-15T13:59:31Z,1534341571,2018,14,0,227.583,227.583,64.806,-52.176,1007.7,9.33,-999.0,yes,yes,no,300234063732900,BD2GI,AOML,MANEVAI,North
2018-08-15T15:00:00Z,1534345200,2018,15,0,227.625,227.625,64.805,-52.176,1007.9,9.48,-999.0,yes,yes,no,300234063732900,BD2GI,AOML,MANEVAI,North
2018-08-15T16:00:28Z,1534348829,2018,16,0,227.667,227.667,64.806,-52.176,1007.7,10.14,-999.0,yes,yes,no,300234063732900,BD2GI,AOML,MANEVAI,North
2018-08-15T16:59:31Z,1534352371,2018,17,0,227.708,227.708,64.805,-52.176,1007.6,10.59,-999.0,yes,yes,no,300234063732900,BD2GI,AOML,MANEVAI,North
2018-08-15T18:00:00Z,1534356000,2018,18,0,227.75,227.75,64.805,-52.176,1007.6,10.5,-999.0,yes,yes,no,300234063732900,BD2GI,AOML,MANEVAI,North
2018-08-15T19:00:28Z,1534359629,2018,19,0,227.792,227.792,64.805,-52.176,1007.4,10.78,-999.0,yes,yes,no,300234063732900,BD2GI,AOML,MANEVAI,North
2018-08-15T19:59:31Z,1534363171,2018,20,0,227.833,227.833,64.806,-52.176,1007.2,11.64,-999.0,yes,yes,no,300234063732900,BD2GI,AOML,MANEVAI,North
2018-08-15T21:00:00Z,1534366800,2018,21,0,227.875,227.875,64.805,-52.176,1006.7,10.98,-999.0,yes,yes,no,300234063732900,BD2GI,AOML,MANEVAI,North
2018-08-15T22:00:28Z,1534370429,2018,22,0,227.917,227.917,64.806,-52.176,1006.0,11.26,-999.0,yes,yes,no,300234063732900,BD2GI,AOML,MANEVAI,North
2018-08-15T22:59:31Z,1534373971,2018,23,0,227.958,227.958,64.806,-52.176,1005.5,9.9,-999.0,yes,yes,no,300234063732900,BD2GI,AOML,MANEVAI,North
2018-08-16T00:00:00Z,1534377600,2018,0,0,228.0,228.0,64.805,-52.176,1005.4,8.61,-999.0,yes,yes,no,300234063732900,BD2GI,AOML,MANEVAI,North
2018-08-16T01:00:28Z,1534381229,2018,1,0,228.042,228.042,64.805,-52.176,1005.1,8.08,-999.0,yes,yes,no,300234063732900,BD2GI,AOML,MANEVAI,North
2018-08-16T01:59:31Z,1534384771,2018,2,0,228.083,228.083,64.805,-52.176,1004.3,7.72,-999.0,yes,yes,no,300234063732900,BD2GI,AOML,MANEVAI,North
2018-08-16T03:00:00Z,1534388400,2018,3,0,228.125,228.125,64.805,-52.176,1003.0,7.39,-999.0,yes,yes,no,300234063732900,BD2GI,AOML,MANEVAI,North
2018-08-16T04:00:28Z,1534392029,2018,4,0,228.167,228.167,64.805,-52.176,1002.1,7.33,-999.0,yes,yes,no,300234063732900,BD2GI,AOML,MANEVAI,North
2018-08-16T04:59:31Z,1534395571,2018,5,0,228.208,228.208,64.805,-52.176,1001.2,7.22,-999.0,yes,yes,no,300234063732900,BD2GI,AOML,MANEVAI,North
2018-08-16T06:00:00Z,1534399200,2018,6,0,228.25,228.25,64.805,-52.176,1000.4,6.91,-999.0,yes,yes,no,300234063732900,BD2GI,AOML,MANEVAI,North
2018-08-16T07:00:28Z,1534402829,2018,7,0,228.292,228.292,64.806,-52.176,1000.1,6.68,-999.0,yes,yes,no,300234063732900,BD2GI,AOML,MANEVAI,North
2018-08-16T07:59:31Z,1534406371,2018,8,0,228.333,228.333,64.806,-52.176,999.9,6.64,-999.0,yes,yes,no,300234063732900,BD2GI,AOML,MANEVAI,North
2018-08-16T09:00:00Z,1534410000,2018,9,0,228.375,228.375,64.805,-52.176,999.4,6.54,-999.0,yes,yes,no,300234063732900,BD2GI,AOML,MANEVAI,North
2018-08-16T10:00:28Z,1534413629,2018,10,0,228.417,228.417,64.805,-52.176,999.0,6.44,-999.0,yes,yes,no,300234063732900,BD2GI,AOML,MANEVAI,North
2018-08-16T10:59:31Z,1534417171,2018,11,0,228.458,228.458,64.805,-52.176,998.6,6.43,-999.0,yes,yes,no,300234063732900,BD2GI,AOML,MANEVAI,North
2018-08-16T12:00:00Z,1534420800,2018,12,0,228.5,228.5,64.805,-52.176,998.8,6.69,-999.0,yes,yes,no,300234063732900,BD2GI,AOML,MANEVAI,North
2018-08-16T13:00:28Z,1534424429,2018,13,0,228.542,228.542,64.805,-52.176,998.9,6.83,-999.0,yes,yes,no,300234063732900,BD2GI,AOML,MANEVAI,North
2018-08-16T13:59:31Z,1534427971,2018,14,0,228.583,228.583,64.805,-52.176,999.3,6.78,-999.0,yes,yes,no,300234063732900,BD2GI,AOML,MANEVAI,North
2018-08-16T15:00:00Z,1534431600,2018,15,0,228.625,228.625,64.805,-52.176,999.4,6.96,-999.0,yes,yes,no,300234063732900,BD2GI,AOML,MANEVAI,North
2018-08-16T16:00:28Z,1534435229,2018,16,0,228.667,228.667,64.805,-52.176,999.6,6.73,-999.0,yes,yes,no,300234063732900,BD2GI,AOML,MANEVAI,North
2018-08-16T16:59:31Z,1534438771,2018,17,0,228.708,228.708,64.805,-52.176,999.8,6.6,-999.0,yes,yes,no,300234063732900,BD2GI,AOML,MANEVAI,North
2018-08-16T18:00:00Z,1534442400,2018,18,0,228.75,228.75,64.805,-52.176,1000.2,6.5,-999.0,yes,yes,no,300234063732900,BD2GI,AOML,MANEVAI,North
2018-08-16T19:00:28Z,1534446029,2018,19,0,228.792,228.792,64.805,-52.176,1000.7,6.47,-999.0,yes,yes,no,300234063732900,BD2GI,AOML,MANEVAI,North
2018-08-16T19:59:31Z,1534449571,2018,20,0,228.833,228.833,64.805,-52.176,1001.4,6.36,-999.0,yes,yes,no,300234063732900,BD2GI,AOML,MANEVAI,North
2018-08-16T21:00:00Z,1534453200,2018,21,0,228.875,228.875,64.805,-52.176,1002.1,6.3,-999.0,yes,yes,no,300234063732900,BD2GI,AOML,MANEVAI,North
2018-08-16T22:00:28Z,1534456829,2018,22,0,228.917,228.917,64.805,-52.176,1002.9,6.05,-999.0,yes,yes,no,300234063732900,BD2GI,AOML,MANEVAI,North
2018-08-16T22:59:31Z,1534460371,2018,23,0,228.958,228.958,64.805,-52.176,1003.6,5.96,-999.0,yes,yes,no,300234063732900,BD2GI,AOML,MANEVAI,North
2018-08-17T00:00:00Z,1534464000,2018,0,0,229.0,229.0,64.806,-52.176,1004.3,5.97,-999.0,yes,yes,no,300234063732900,BD2GI,AOML,MANEVAI,North
2018-08-17T01:00:28Z,1534467629,2018,1,0,229.042,229.042,64.805,-52.176,1004.9,5.99,-999.0,yes,yes,no,300234063732900,BD2GI,AOML,MANEVAI,North
2018-08-17T01:59:31Z,1534471171,2018,2,0,229.083,229.083,64.805,-52.176,1005.7,5.95,-999.0,yes,yes,no,300234063732900,BD2GI,AOML,MANEVAI,North
2018-08-17T03:00:00Z,1534474800,2018,3,0,229.125,229.125,64.806,-52.176,1006.3,6.04,-999.0,yes,yes,no,300234063732900,BD2GI,AOML,MANEVAI,North
2018-08-17T04:00:28Z,1534478429,2018,4,0,229.167,229.167,64.805,-52.176,1006.6,5.88,-999.0,yes,yes,no,300234063732900,BD2GI,AOML,MANEVAI,North
2018-08-17T04:59:31Z,1534481971,2018,5,0,229.208,229.208,64.805,-52.176,1006.9,5.94,-999.0,yes,yes,no,300234063732900,BD2GI,AOML,MANEVAI,North
2018-08-17T06:00:00Z,1534485600,2018,6,0,229.25,229.25,64.805,-52.176,1007.2,5.84,-999.0,yes,yes,no,300234063732900,BD2GI,AOML,MANEVAI,North
2018-08-17T07:00:28Z,1534489229,2018,7,0,229.292,229.292,64.805,-52.176,1007.7,5.82,-999.0,yes,yes,no,300234063732900,BD2GI,AOML,MANEVAI,North
2018-08-17T07:59:31Z,1534492771,2018,8,0,229.333,229.333,64.806,-52.176,1007.7,5.72,-999.0,yes,yes,no,300234063732900,BD2GI,AOML,MANEVAI,North
2018-08-17T09:00:00Z,1534496400,2018,9,0,229.375,229.375,64.805,-52.176,1007.8,5.83,-999.0,yes,yes,no,300234063732900,BD2GI,AOML,MANEVAI,North
2018-08-17T10:00:28Z,1534500029,2018,10,0,229.417,229.417,64.806,-52.176,1007.8,5.95,-999.0,yes,yes,no,300234063732900,BD2GI,AOML,MANEVAI,North
2018-08-17T10:59:31Z,1534503571,2018,11,0,229.458,229.458,64.805,-52.176,1008.0,6.15,-999.0,yes,yes,no,300234063732900,BD2GI,AOML,MANEVAI,North
2018-08-17T12:00:00Z,1534507200,2018,12,0,229.5,229.5,64.805,-52.176,1008.0,6.44,-999.0,yes,yes,no,300234063732900,BD2GI,AOML,MANEVAI,North
2018-08-17T13:00:28Z,1534510829,2018,13,0,229.542,229.542,64.805,-52.176,1007.7,7.11,-999.0,yes,yes,no,300234063732900,BD2GI,AOML,MANEVAI,North
2018-08-17T13:59:31Z,1534514371,2018,14,0,229.583,229.583,64.805,-52.176,1007.6,7.25,-999.0,yes,yes,no,300234063732900,BD2GI,AOML,MANEVAI,North
2018-08-17T15:00:00Z,1534518000,2018,15,0,229.625,229.625,64.805,-52.176,1007.1,7.6,-999.0,yes,yes,no,300234063732900,BD2GI,AOML,MANEVAI,North
2018-08-17T16:00:28Z,1534521629,2018,16,0,229.667,229.667,64.805,-52.176,1006.6,8.09,-999.0,yes,yes,no,300234063732900,BD2GI,AOML,MANEVAI,North